TimeEST,TemperatureF,Dew PointF,Humidity,Sea Level PressureIn,VisibilityMPH,Wind Direction,Wind SpeedMPH,Gust SpeedMPH,PrecipitationIn,Events,Conditions,WindDirDegrees,DateUTC
12:54 AM,9.0,1.0,70,30.32,10.0,South,3.5,-,N/A,,Clear,190,2014-01-04 05:54:00
1:54 AM,10.0,1.9,70,30.30,10.0,South,5.8,-,N/A,,Clear,170,2014-01-04 06:54:00
2:54 AM,10.0,3.0,73,30.30,10.0,South,4.6,-,N/A,,Clear,170,2014-01-04 07:54:00
3:54 AM,10.9,3.0,70,30.28,10.0,Calm,Calm,-,N/A,,Clear,0,2014-01-04 08:54:00
4:54 AM,3.0,-0.0,87,30.27,10.0,Calm,Calm,-,N/A,,Clear,0,2014-01-04 09:54:00
5:54 AM,8.1,1.0,73,30.27,10.0,Calm,Calm,-,N/A,,Clear,0,2014-01-04 10:54:00
6:54 AM,12.9,3.9,67,30.25,10.0,South,6.9,-,N/A,,Clear,180,2014-01-04 11:54:00
7:54 AM,12.9,3.9,67,30.25,10.0,South,5.8,-,N/A,,Clear,170,2014-01-04 12:54:00
8:54 AM,16.0,6.1,65,30.24,10.0,South,6.9,-,N/A,,Clear,170,2014-01-04 13:54:00
9:54 AM,21.0,8.1,57,30.24,10.0,SSW,10.4,-,N/A,,Clear,200,2014-01-04 14:54:00
10:54 AM,24.1,10.0,55,30.22,10.0,South,11.5,19.6,N/A,,Clear,190,2014-01-04 15:54:00
11:54 AM,30.0,10.9,45,30.18,10.0,SSW,13.8,21.9,N/A,,Clear,200,2014-01-04 16:54:00
12:54 PM,30.9,12.0,46,30.14,10.0,SSW,13.8,20.7,N/A,,Clear,200,2014-01-04 17:54:00
1:54 PM,33.1,12.9,43,30.12,10.0,SSW,12.7,19.6,N/A,,Clear,210,2014-01-04 18:54:00
2:54 PM,33.1,14.0,46,30.11,10.0,SSW,10.4,-,N/A,,Clear,210,2014-01-04 19:54:00
3:54 PM,34.0,15.1,46,30.12,10.0,SSW,3.5,-,N/A,,Clear,200,2014-01-04 20:54:00
4:54 PM,35.1,14.0,42,30.12,10.0,South,6.9,-,N/A,,Clear,170,2014-01-04 21:54:00
5:54 PM,32.0,12.9,45,30.10,10.0,South,5.8,-,N/A,,Clear,180,2014-01-04 22:54:00
6:54 PM,28.0,12.9,53,30.10,10.0,South,3.5,-,N/A,,Clear,180,2014-01-04 23:54:00
7:54 PM,25.0,12.0,58,30.11,10.0,Calm,Calm,-,N/A,,Clear,0,2014-01-05 00:54:00
8:54 PM,17.1,10.0,74,30.12,10.0,Calm,Calm,-,N/A,,Clear,0,2014-01-05 01:54:00
9:54 PM,14.0,9.0,80,30.12,10.0,Calm,Calm,-,N/A,,Partly Cloudy,0,2014-01-05 02:54:00
10:54 PM,17.1,10.9,77,30.12,10.0,Calm,Calm,-,N/A,,Mostly Cloudy,0,2014-01-05 03:54:00
11:54 PM,16.0,10.9,81,30.10,10.0,Calm,Calm,-,N/A,,Partly Cloudy,0,2014-01-05 04:54:00